Regional Weather Roundup
Issued by NWS

Home | Current Version | Previous Version | Text Only | Print | Product List | Glossary Off
Versions: 1 2 3 4 5 6 7 8 9 10 11 12 13 14 15 16 17 18 19 20 21 22 23 24 25 26 27 28 29 30 31 32 33 34 35 36 37 38 39 40 41 42 43 44 45 46 47 48 49 50

000
ASUS45 KTFX 240310
RWRMT
MONTANA REGIONAL WEATHER ROUNDUP
NATIONAL WEATHER SERVICE GREAT FALLS MT
900 PM MDT SAT SEP 23 2017

NOTE: "FAIR" INDICATES FEW OR NO CLOUDS BELOW 12000 FEET WITH NO
SIGNIFICANT WEATHER AND/OR OBSTRUCTIONS TO VISIBILITY.

MTZ001>007-043-240400-
WEST OF THE DIVIDE

CITY           SKY/WX    TMP DP  RH WIND       PRES   REMARKS
KALISPELL      CLOUDY    44  39  82 CALM      30.11R
MISSOULA       CLOUDY    47  39  74 NW3       30.12S
BUTTE          CLOUDY    37  32  82 SE6       30.12R
MULLAN PASS    CLOUDY    36  33  89 SW5       30.12R
ANACONDA         N/A     37  27  65 CALM      30.12R
DEER LODGE       N/A     43  30  61 CALM      30.13R
EUREKA           N/A     50  37  62 CALM      30.08S
HAMILTON         N/A     45  37  76 CALM      30.12S
LIBBY            N/A     46  39  76 CALM      30.07R
PLAINS           N/A     45  35  67 CALM      30.12
$$

MTZ008-052>055-240400-
SOUTHWEST MONTANA

CITY           SKY/WX    TMP DP  RH WIND       PRES   REMARKS
BOZEMAN        CLOUDY    42  36  79 CALM      30.10R
DILLON         CLOUDY    42  31  64 NE8       30.08R
W YELLOWSTONE  CLOUDY    36  28  75 NE14      30.05R WCI  27
ENNIS          CLOUDY    39  32  75 N10       30.11F
THREE FORKS      N/A     46  35  65 CALM      30.09R
$$

MTZ009-010-012-014-046-048-049-054-240400-
EAST SLOPES AND CENTRAL MONTANA

CITY           SKY/WX    TMP DP  RH WIND       PRES   REMARKS
CUT BANK       CLEAR     41  34  76 CALM      30.07R
GREAT FALLS    CLEAR     41  32  70 S8        30.08S
MALMSTROM AFB  CLEAR     39  33  80 S6        30.09R
HELENA         CLOUDY    47  33  58 SW7       30.10R
BOWMANS CRNR     N/A     39  30  71 S7        30.07R
CHOTEAU          N/A     43  32  65 CALM      30.09S
FAIRFIELD        N/A     42  32  66 SE3       30.07R
POWER            N/A     39  32  75 S3        30.07S
RAYNESFORD       N/A     39  31  74 CALM      30.10R
ULM              N/A     38  34  85 SE9       30.09R WCI  31
$$

MTZ011-013-016-021-045-047-050-051-240400-
NORTH CENTRAL MONTANA

CITY           SKY/WX    TMP DP  RH WIND       PRES   REMARKS
HAVRE          CLEAR     44  39  82 E7        30.09R
LEWISTOWN      CLOUDY    43  39  86 E8        30.11R
N BAR RANCH    MOCLDY    36  36 100 SW5       30.15R
CHINOOK          N/A     46  41  81 E6        30.09S
DENTON           N/A     45  40  82 SE6       30.07R
GEYSER         MOCLDY    44  37  75 SE3       30.09R
JUDITH GAP     MOCLDY    40  38  89 SE10      30.10R
WINIFRED       CLOUDY    43  40  88 E9        30.10R
$$

MTZ017>020-022>027-061-062-240400-
NORTHEAST MONTANA

CITY           SKY/WX    TMP DP  RH WIND       PRES   REMARKS
GLASGOW        CLOUDY    48  39  71 E5        30.12F
JORDAN           N/A     46  39  76 E3        30.14R
SIDNEY         LGT RAIN  45  43  93 N6        30.12F
WOLF POINT     LGT RAIN  49  43  80 CALM      30.13F
MALTA          MOCLDY    43  41  93 CALM      30.11F
PLENTYWOOD       N/A     46  39  76 CALM      30.15S
POPLAR           N/A     46  43  87 CALM      30.14F
SCOBEY           N/A     46  36  68 NW2       30.11
$$

MTZ028>42-056>058-240400-
SOUTHCENTRAL AND SOUTHEAST MONTANA

CITY           SKY/WX    TMP DP  RH WIND       PRES   REMARKS
BAKER          LGT RAIN  44  42  93 N5        30.11R
BILLINGS       CLOUDY    45  39  79 NE3       30.12S
LIVINGSTON     CLOUDY    43  35  73 SE5       30.09R
MILES CITY     LGT RAIN  43  41  93 N7        30.12S
BIG TIMBER     CLOUDY    43  34  70 CALM      30.13S
EKALAKA          N/A     41  38  89 N5        30.06
HARLOWTON      DRIZZLE   42  40  91 MISG      30.11R
LAUREL           N/A     43  41  93 CALM      30.12F
$$

REGIONAL REPORTS...DAKOTAS

CITY           SKY/WX    TMP DP  RH WIND       PRES   REMARKS
WILLISTON      LGT RAIN  47  44  90 N5        30.14F
MINOT          LGT RAIN  49  46  90 NW7       30.08F
DICKINSON      LGT RAIN  45  44  97 N8        30.06S FOG
BEACH          DRIZZLE   43  43 100 N6        30.13S
CROSBY         CLOUDY    46  45  93 CALM      30.17R
TIOGA          CLOUDY    45  45 100 N8        30.14F
BISMARCK       CLOUDY    50  47  89 N13       30.05R
GRAND FORKS    LGT RAIN  57  52  83 N12       30.02F
FARGO          CLOUDY    55  54  96 NE8       29.97F
BUFFALO SD       N/A     45  44  97 NE13      30.01R
RAPID CITY     LGT RAIN  45  45 100 N12       30.04S FOG
$$

REGIONAL REPORTS...WYOMING/IDAHO/WASHINGTON

CITY           SKY/WX    TMP DP  RH WIND       PRES   REMARKS
GILLETTE       CLOUDY    41 N/A N/A N10       30.05F
SHERIDAN       CLOUDY    41  40  96 N5        30.09F
BUFFALO WY     CLOUDY    38  35  89 N10       30.07F WCI  31
CODY           CLOUDY    39  33  79 N9        30.10R
IDAHO FALLS    CLEAR     42  33  70 N9        30.00R
SALMON         CLOUDY    44  30  57 N6        30.09R
BOISE          CLEAR     53  35  50 NW8       30.01S
SPOKANE        CLOUDY    56  41  57 S6        30.09R
$$

REGIONAL REPORTS...ALBERTA

CITY           SKY/WX    TMP DP  RH WIND       PRES   REMARKS
EDMONTON       PTCLDY    41  37  87 SE6       30.03S
CALGARY        PTCLDY    43  32  65 SE12      30.06R
LETHBRIDGE     PTCLDY    39  32  75 NE3       30.07S
MEDICINE HAT   MOCLDY    46  37  71 E6        30.08R
$$

REGIONAL REPORTS...SASKATCHEWAN

CITY           SKY/WX    TMP DP  RH WIND       PRES   REMARKS
SWIFT CURRENT    N/A     41  32  70 SE7       30.11R
REGINA         MOCLDY    45  36  70 E6        30.17R
SASKATOON      MOCLDY    48  39  71 S2        30.15S
$$



USA.gov is the U.S. government's official web portal to all federal, state and local government web resources and services.